Regional Weather Roundup
Issued by NWS

Home | Current Version | Previous Version | Graphics & Text | Print | Product List | Glossary Off
Versions: 1 2 3 4 5 6 7 8 9 10 11 12 13 14 15 16 17 18 19 20 21 22 23 24 25 26 27 28 29 30 31 32 33 34 35 36 37 38 39 40 41 42 43 44 45 46 47 48 49 50

000
ASUS43 KMKX 240600
RWRWI

WISCONSIN REGIONAL WEATHER ROUNDUP
NATIONAL WEATHER SERVICE MILWAUKEE/SULLIVAN WI
100 AM CDT SAT JUN 24 2017

NOTE: "FAIR" INDICATES FEW OR NO CLOUDS BELOW 12,000 FEET WITH NO
SIGNIFICANT WEATHER AND/OR OBSTRUCTIONS TO VISIBILITY.

WIZ001-002-006>008-014>016-023>028-240700-
NORTHWEST WISCONSIN

CITY           SKY/WX    TMP DP  RH WIND       PRES   REMARKS
SUPERIOR ARPT  NOT AVBL
ASHLAND        CLOUDY    58  51  78 W13       29.84R
6HR MIN TEMP:  58; 6HR MAX TEMP:  70;

HAYWARD        CLOUDY    56  52  86 W5        29.88R
6HR MIN TEMP:  56; 6HR MAX TEMP:  61; 6HR PCP:  0.09;

SIREN          MOCLDY    54  49  82 CALM      29.91S
CUMBERLAND     CLOUDY    55  46  71 NW12      29.91R
RICE LAKE      CLOUDY    59  50  71 W7        29.91R
CHETEK         CLOUDY    60  52  74 NW10G17   29.90R
LADYSMITH      CLOUDY    59  52  77 NW14G20   29.89R
EAU CLAIRE     NOT AVBL
MENOMONIE      CLOUDY    59  56  91 W9        29.91S
6HR MIN TEMP:  58; 6HR MAX TEMP:  69;

NEW RICHMOND   CLOUDY    56  50  80 W7        29.94R
OSCEOLA        CLOUDY    59  50  72 W7        29.96R
$$

WIZ003>005-009-010-017-018-240700-
NORTH CENTRAL WISCONSIN

CITY           SKY/WX    TMP DP  RH WIND       PRES   REMARKS
MANITOWISH WTR CLOUDY    56  53  89 NW8       29.82R
ARBOR VITAE    PTCLDY    57  50  79 NW9       29.81S
WOODRUFF       PTCLDY    57  50  79 NW9       29.81S
RHINELANDER    CLEAR     54  52  93 W8        29.82R
6HR MIN TEMP:  50; 6HR MAX TEMP:  66; 6HR PCP:  0.01;

EAGLE RIVER    MOCLDY    55  48  75 W6        29.80R
LAND O LAKES   PTCLDY    56  49  78 W8        29.81S
6HR MIN TEMP:  51; 6HR MAX TEMP:  65;

PHILLIPS       CLOUDY    56  54  91 NW5       29.84R
TOMAHAWK       NOT AVBL
MEDFORD        MOCLDY    56  52  87 NW7       29.86R
MERRILL        MOCLDY    56  54  91 W6        29.84R
6HR MIN TEMP:  56; 6HR MAX TEMP:  67;

$$

WIZ029-030-035-036-043>047-240700-
CENTRAL WISCONSIN

CITY           SKY/WX    TMP DP  RH WIND       PRES   REMARKS
WAUSAU         PTCLDY    58  52  80 W9        29.82R
6HR MIN TEMP:  58; 6HR MAX TEMP:  69; 6HR PCP: TRACE;

MOSINEE        CLOUDY    57  54  88 W7        29.84S
MARSHFIELD     CLOUDY    58  52  80 W9        29.85R
6HR MIN TEMP:  57; 6HR MAX TEMP:  67;

STEVENS POINT  PTCLDY    58  51  77 W5        29.84R
WAUPACA        CLEAR     61  54  77 W7        29.82S
6HR MIN TEMP:  61; 6HR MAX TEMP:  71;

WAUTOMA        PTCLDY    60  53  77 W10       29.84S
6HR MIN TEMP:  60; 6HR MAX TEMP:  69;

WISC RAPIDS    CLOUDY    60  53  77 NW12      29.86R
6HR MIN TEMP:  60; 6HR MAX TEMP:  70;

CAMP DOUGLAS   NOT AVBL
$$

WIZ011>013-019>022-031-037>040-048>050-240700-
NORTHEAST WISCONSIN

CITY           SKY/WX    TMP DP  RH WIND       PRES   REMARKS
ANTIGO         PTCLDY    55  51  89 W8        29.82R
SHAWANO        CLEAR     61  52  73 W6        29.79R
OCONTO         CLEAR     55  51  89 CALM      29.76F
STURGEON BAY     N/A     61  52  72 W5          N/A
6HR MIN TEMP:  61; 6HR MAX TEMP:  71;

GREEN BAY      CLEAR     60  54  80 W8        29.79R
6HR MIN TEMP:  60; 6HR MAX TEMP:  71;

MANITOWOC      NOT AVBL
APPLETON       CLEAR     55  50  82 W6        29.80R
CLINTONVILLE   CLEAR     59  50  72 W7        29.80S
OSHKOSH        CLEAR     61  53  75 W6        29.81R
6HR MIN TEMP:  61; 6HR MAX TEMP:  71;

$$

WIZ032>034-041-042-053>061-240700-
SOUTHWEST WISCONSIN

CITY           SKY/WX    TMP DP  RH WIND       PRES   REMARKS
LA CROSSE      CLOUDY    68  55  63 NW15      29.91R
6HR MIN TEMP:  67; 6HR MAX TEMP:  76; 6HR PCP: TRACE;

SPARTA         MOCLDY    58  54  86 W3        29.91R
VIROQUA        PTCLDY    59  55  85 W5        29.92R
BOSCOBEL       PTCLDY    64  54  69 VRB3      29.91R
6HR MIN TEMP:  64; 6HR MAX TEMP:  73;

PRAIRIE DU CHI CLEAR     62  53  71 W6        29.93R
PLATTEVILLE    CLEAR     61  57  86 W9        29.93R
$$

WIZ056-057-062-063-064-067-068-240700-
SOUTH CENTRAL WISCONSIN

CITY           SKY/WX    TMP DP  RH WIND       PRES   REMARKS
REEDSBURG      CLEAR     60  54  80 W6        29.88R
BARABOO/DELLS  CLEAR     58  52  79 W7        29.87S
LONE ROCK      NOT AVBL
MINERAL POINT  CLEAR     61  55  82 W10       29.92R
MADISON        CLEAR     61  55  81 W5        29.87R
6HR MIN TEMP:  61; 6HR MAX TEMP:  71;

MIDDLETON      CLEAR     60  55  83 W9        29.88R
WATERTOWN      CLEAR     60  56  88 W3        29.85R
MONROE         CLEAR     61  54  77 W12       29.90R
JANESVILLE     CLEAR     63  54  72 W8        29.87R
$$

WIZ051-052-058>065-066-070>072-240700-
SOUTHEAST WISCONSIN

CITY           SKY/WX    TMP DP  RH WIND       PRES   REMARKS
MILWAUKEE      CLEAR     66  55  67 W8        29.82R
6HR MIN TEMP:  66; 6HR MAX TEMP:  77;

WAUKESHA       CLEAR     59  52  77 W9        29.85R
MILWAUKEE/TIMM CLEAR     61  50  67 W7        29.83S
RACINE         CLEAR     63  54  72 W6        29.85R
6HR MIN TEMP:  63; 6HR MAX TEMP:  76;

KENOSHA        CLEAR     60  54  80 W8        29.84R
6HR MIN TEMP:  60; 6HR MAX TEMP:  76;

FOND DU LAC    PTCLDY    62  52  69 W9        29.82R
6HR MIN TEMP:  61; 6HR MAX TEMP:  70;

SHEBOYGAN      CLEAR     60  56  86 W6        29.80R
6HR MIN TEMP:  60; 6HR MAX TEMP:  73;

WEST BEND      CLEAR     61  54  77 W8        29.82S
JUNEAU         CLEAR     61  54  77 W6        29.85R
$$

LSZ147-162-240700-
LAKE SUPERIOR

STATION/POSITION TIME  TEMP    WIND        PRES    WAVE
                       AIR SEA DIR/SP/G            HT/PER
                 (UTC) (F)     (DEG/KT/KT) (MB)    (FT/S)
W MID LAKE BUOY  0450   47 39  270/  6/  8 1007.8R   1
DEVILS ISLAND    0500   54     240/ 10/ 13 1009.4R
SAXON HARBOR     0530   62     280/ 10/ 15 1009.1S
$$

LMZ867-665-643>646-240700-
LAKE MICHIGAN

STATION/POSITION TIME  TEMP    WIND        PRES    WAVE
                       AIR SEA DIR/SP/G            HT/PER
                 (UTC) (F)     (DEG/KT/KT) (MB)    (FT/S)
CHAMBERS ISLAND  0540   61     230/  3/  6 1007.1S
S GREEN BAY BUOY 0530   64     270/ 12/ 14 1007.7R
N MID LAKE BUOY  0450   61 57  250/  2/  4 1007.2R   1
NORTHPORT PIER   0540   63     260/  3/  6 1007.1S
KEWAUNEE LAKESHO 0530   61     300/  3/  5 1007.9R
SHEBOYGAN LAKESH 0500   65     270/ 10/ 12 1008.2R
PORT WASHINGTON  0540   65     270/  6/  9 1010.2S
ATWATER BUOY     0409   65 60  280/ 12/ 14 1009.6R
MILWAUKEE LAKESH 0530   66     290/  9/ 12   N/A
S MID LAKE BUOY  0450   65 62  320/ 12/ 14 1008.8R   2/ 3
KENOSHA   LAKESH 0500   66     280/  8/ 11 1010.2
$$

TC  - TEMPERATURE IN CELSIUS
VSB - VISIBILITY IN STATUTE MILES
WCI - WIND CHILL INDEX
HX  - HEAT INDEX





USA.gov is the U.S. government's official web portal to all federal, state and local government web resources and services.